Time,TemperatureF,DewpointF,PressureIn,WindDirection,WindDirectionDegrees,WindSpeedMPH,WindSpeedGustMPH,Humidity,HourlyPrecipIn,Conditions,Clouds,dailyrainin,SoftwareType,DateUTC
2013-07-22 11:11:00,76.0,63.0,-100.00,North,0,12.0,19.0,63,0.00,,,0.00,,2013-07-22 16:11:00,
2013-07-22 11:21:00,74.0,59.0,-100.00,North,0,14.0,21.0,60,0.00,,,0.00,,2013-07-22 16:21:00,
2013-07-22 11:52:00,74.0,59.0,-100.00,NNW,340,13.0,22.0,58,0.00,,,0.00,,2013-07-22 16:52:00,
2013-07-22 12:01:00,75.0,61.0,-100.00,NW,320,10.0,22.0,59,0.00,,,0.00,,2013-07-22 17:01:00,
2013-07-22 12:23:00,74.0,59.0,-100.00,NNW,330,19.0,22.0,57,0.00,,,0.00,,2013-07-22 17:23:00,
2013-07-22 12:32:00,75.0,59.0,-100.00,NNW,330,14.0,25.0,56,0.00,,,0.00,,2013-07-22 17:32:00,
2013-07-22 12:43:00,75.0,61.0,-100.00,North,0,13.0,21.0,59,0.00,,,0.00,,2013-07-22 17:43:00,
2013-07-22 12:52:00,74.0,61.0,-100.00,NW,325,11.0,22.0,60,0.00,,,0.00,,2013-07-22 17:52:00,
2013-07-22 13:13:00,74.0,59.0,-100.00,North,0,15.0,21.0,59,0.00,,,0.00,,2013-07-22 18:13:00,
2013-07-22 13:34:00,73.0,59.0,-100.00,NW,320,16.0,22.0,59,0.00,,,0.00,,2013-07-22 18:34:00,
2013-07-22 13:54:00,72.0,57.0,-100.00,North,355,16.0,24.0,58,0.00,,,0.00,,2013-07-22 18:54:00,
2013-07-22 14:34:00,72.0,57.0,-100.00,NNW,340,16.0,24.0,57,0.00,,,0.00,,2013-07-22 19:34:00,
2013-07-22 14:53:00,74.0,57.0,-100.00,North,0,12.0,21.0,56,0.00,,,0.00,,2013-07-22 19:53:00,
2013-07-22 15:03:00,73.0,57.0,-100.00,NW,325,19.0,27.0,55,0.00,,,0.00,,2013-07-22 20:03:00,
2013-07-22 15:15:00,73.0,57.0,-100.00,NNW,345,12.0,27.0,55,0.00,,,0.00,,2013-07-22 20:15:00,
2013-07-22 15:22:00,73.0,57.0,-100.00,NNW,340,15.0,24.0,56,0.00,,,0.00,,2013-07-22 20:22:00,
2013-07-22 15:32:00,74.0,55.0,-100.00,NW,325,15.0,22.0,54,0.00,,,0.00,,2013-07-22 20:32:00,
2013-07-22 15:52:00,73.0,55.0,-100.00,NNW,345,13.0,23.0,54,0.00,,,0.00,,2013-07-22 20:52:00,
2013-07-22 16:01:00,73.0,55.0,-100.00,NNW,340,14.0,24.0,53,0.00,,,0.00,,2013-07-22 21:01:00,
2013-07-22 16:11:00,73.0,55.0,-100.00,North,0,15.0,25.0,55,0.00,,,0.00,,2013-07-22 21:11:00,
2013-07-22 16:22:00,71.0,55.0,-100.00,North,0,19.0,23.0,56,0.00,,,0.00,,2013-07-22 21:22:00,
2013-07-22 16:52:00,71.0,55.0,-100.00,North,0,12.0,23.0,58,0.00,,,0.00,,2013-07-22 21:52:00,
2013-07-22 17:11:00,71.0,55.0,-100.00,NNW,340,16.0,22.0,56,0.00,,,0.00,,2013-07-22 22:11:00,
2013-07-22 17:22:00,72.0,55.0,-100.00,NNW,345,11.0,22.0,53,0.00,,,0.00,,2013-07-22 22:22:00,
2013-07-22 17:32:00,72.0,54.0,-100.00,North,355,11.0,21.0,53,0.00,,,0.00,,2013-07-22 22:32:00,
2013-07-22 17:43:00,71.0,55.0,-100.00,North,5,12.0,24.0,56,0.00,,,0.00,,2013-07-22 22:43:00,
2013-07-22 18:01:00,71.0,55.0,-100.00,North,0,17.0,24.0,56,0.00,,,0.00,,2013-07-22 23:01:00,
2013-07-22 18:11:00,71.0,54.0,-100.00,North,0,16.0,26.0,55,0.00,,,0.00,,2013-07-22 23:11:00,
2013-07-22 18:22:00,71.0,54.0,-100.00,North,0,16.0,26.0,54,0.00,,,0.00,,2013-07-22 23:22:00,
2013-07-22 19:01:00,71.0,54.0,-100.00,NNE,15,17.0,23.0,52,0.00,,,0.00,,2013-07-23 00:01:00,
2013-07-22 19:12:00,71.0,52.0,-100.00,North,0,17.0,24.0,52,0.00,,,0.00,,2013-07-23 00:12:00,
2013-07-22 19:22:00,70.0,54.0,-100.00,North,0,16.0,24.0,54,0.00,,,0.00,,2013-07-23 00:22:00,
2013-07-22 19:52:00,70.0,52.0,-100.00,North,355,11.0,17.0,54,0.00,,,0.00,,2013-07-23 00:52:00,
2013-07-22 20:01:00,69.0,54.0,-100.00,North,0,13.0,20.0,55,0.00,,,0.00,,2013-07-23 01:01:00,
2013-07-22 20:11:00,69.0,54.0,-100.00,North,0,14.0,22.0,56,0.00,,,0.00,,2013-07-23 01:11:00,
2013-07-22 20:32:00,69.0,54.0,-100.00,North,0,16.0,21.0,57,0.00,,,0.00,,2013-07-23 01:32:00,
2013-07-22 21:11:00,67.0,54.0,-100.00,North,10,11.0,19.0,61,0.00,,,0.00,,2013-07-23 02:11:00,
2013-07-22 21:22:00,67.0,54.0,-100.00,North,0,12.0,16.0,62,0.00,,,0.00,,2013-07-23 02:22:00,
2013-07-22 21:53:00,66.0,54.0,-100.00,North,0,7.0,16.0,66,0.00,,,0.00,,2013-07-23 02:53:00,
2013-07-22 22:11:00,65.0,55.0,-100.00,North,5,7.0,11.0,69,0.00,,,0.00,,2013-07-23 03:11:00,
2013-07-22 22:52:00,64.0,54.0,-100.00,North,10,7.0,9.0,69,0.00,,,0.00,,2013-07-23 03:52:00,
2013-07-22 23:01:00,63.0,54.0,-100.00,North,0,7.0,9.0,71,0.00,,,0.00,,2013-07-23 04:01:00,
2013-07-22 23:11:00,63.0,54.0,-100.00,NNE,15,9.0,13.0,70,0.00,,,0.00,,2013-07-23 04:11:00,
2013-07-22 23:21:00,63.0,54.0,-100.00,North,0,10.0,13.0,71,0.00,,,0.00,,2013-07-23 04:21:00,
2013-07-22 23:32:00,63.0,54.0,-100.00,North,0,9.0,17.0,70,0.00,,,0.00,,2013-07-23 04:32:00,
2013-07-22 23:53:00,62.0,55.0,-100.00,North,0,6.0,9.0,75,0.00,,,0.00,,2013-07-23 04:53:00,